[[{"header":{"parameterUnit":"m.s-1","parameterCategory":1,"la1":30.2991,"la2":30.254,"lo1":-89.0895,"lo2":-89.0444,"dy":0.0017,"dx":0.0017,"nx":28,"ny":28,"refTime":"2023-08-02T09:00:00:Z","depth":0,"parameterNumber":2,"parameterNumberName":"U-component_of_WINDS"},"data":[0,0,0,0,0,0,0,0,0,0,0,0,0,0,0,0,0,0,0,0,0,0,0,0,0,0,0,0,0,0,0,0,0,0,0,0,0,0,0,0,0,0,0,0,0,0,0,0,0,0,0,0,0,0,0,0,0,0,0.2883,0.2882,0,0.2842,0.2841,0.2841,0.2749,0.2747,0.2745,0.2743,0.2705,0.2705,0.2706,0,0,0,0,0,0,0,0,0,0,0,0,0,0.2885,0.2885,0.2883,0.2882,0.2882,0.2842,0.2841,0.2841,0.2749,0.2747,0.2744,0.2742,0.2704,0.2705,0.2706,0,0,0,0,0,0,0,0,0,0,0,0,0,0.2868,0.2885,0.2883,0.2831,0.2826,0.2842,0.2841,0.2841,0.2749,0.2747,0.2744,0.2741,0.2704,0.2705,0.2706,0.277,0,0,0.271,0.271,0,0,0,0,0,0,0,0,0.2869,0.2868,0.2839,0.2835,0.2829,0.2797,0.2828,0.2817,0.275,0.2779,0.2743,0.274,0.2738,0.2736,0.2735,0.2769,0.2767,0.271,0.271,0.2711,0.2711,0,0,0,0,0,0,0,0.287,0.2869,0.2867,0.2839,0.2833,0.2811,0.2805,0.2825,0.2775,0.2776,0.2769,0.2765,0.2735,0.2734,0.2733,0.2766,0.271,0.2711,0.2711,0.2712,0.2852,0.2855,0,0,0,0,0,0,0.2879,0.2871,0.2868,0.2865,0.2842,0.2813,0.2807,0.281,0.2774,0.2766,0.2768,0.2761,0.2733,0.2732,0.2732,0.2805,0.2711,0.2712,0.2713,0.2849,0.2853,0.2856,0,0,0,0,0,0,0.2879,0.2879,0.287,0.2866,0.2863,0.2816,0.2821,0.2811,0.281,0.2768,0.2759,0.2776,0.2731,0.273,0.2761,0.2803,0.2712,0.2713,0.2845,0.285,0.2854,0.2954,0,0,0,0,0,0,0.2879,0.288,0.2903,0.2867,0.2864,0.29,0.2823,0.2812,0.2812,0.2803,0.2774,0.2766,0.2729,0.276,0.2763,0.2803,0.2714,0.2842,0.2848,0.2853,0.2946,0.2961,0.2973,0,0,0,0,0,0.288,0.2933,0.2905,0.2905,0.2892,0.2902,0.29,0.2855,0.2816,0.2839,0.2812,0.2767,0.2798,0.2764,0.2766,0.2807,0.2839,0.2846,0.2853,0.294,0.2958,0.2973,0,0,0,0,0,0,0.2976,0.2927,0.2895,0.2938,0.2925,0.2886,0.2915,0.2875,0.2873,0.2865,0.281,0.2804,0.2844,0.2828,0.2792,0.2868,0.2811,0.2819,0.2877,0.2894,0.2907,0.2911,0.2715,0,0,0,0,0,0.3002,0.3013,0.297,0.3013,0.3007,0.2963,0.2965,0.2932,0.2916,0.291,0.2885,0.2873,0.288,0.2885,0.2889,0.2943,0.2936,0.2972,0.2986,0.2997,0.3005,0.3034,0.305,0.2879,0.2879,0.2878,0,0,0.3056,0.3031,0.3042,0.3031,0.3017,0.3031,0.2958,0.2976,0.2987,0.2913,0.2942,0.2923,0.2906,0.2949,0.2967,0.2937,0.3051,0.3006,0.3015,0.3017,0.3043,0.3059,0.3073,0.2883,0.2882,0.2882,0,0,0.3162,0.3144,0.3177,0.3164,0.3143,0.3113,0.3121,0.3089,0.3073,0.31,0.3046,0.3058,0.307,0.306,0.3057,0.316,0.3119,0.3163,0.3234,0.3263,0.3277,0.3288,0.3327,0.3341,0.317,0.3171,0.3171,0,0.3233,0.3251,0.32,0.3222,0.322,0.3152,0.3187,0.3177,0.3159,0.3159,0.3126,0.3141,0.3124,0.3165,0.319,0.3189,0.3198,0.3167,0.3279,0.329,0.33,0.3336,0.3351,0.3176,0.3176,0.3175,0.3175,0,0.334,0.3354,0.3383,0.3367,0.3368,0.3396,0.335,0.3358,0.3324,0.3298,0.3327,0.3305,0.3303,0.331,0.3278,0.3347,0.3329,0.3288,0.323,0.3323,0.3356,0.3369,0.3184,0.3182,0.3181,0.3179,0,0,0.3507,0.3461,0.3473,0.3465,0.3437,0.3447,0.3473,0.347,0.3478,0.3468,0.3489,0.3501,0.3463,0.3459,0.3425,0.345,0.3536,0.3406,0.3405,0.3433,0.3613,0.3646,0.3662,0.3507,0.351,0.3512,0.3615,0,0.3608,0.3648,0.3603,0.3654,0.3667,0.3603,0.3625,0.3611,0.3587,0.3596,0.3569,0.3579,0.3527,0.3525,0.3547,0.3521,0.3572,0.3512,0.3529,0.353,0.3537,0.3679,0.3714,0.3812,0.3627,0.363,0.3631,0,0.3732,0.3727,0.3778,0.3747,0.3751,0.3772,0.3767,0.3775,0.3758,0.3739,0.3735,0.3693,0.3718,0.366,0.3694,0.3655,0.3658,0.3647,0.365,0.3651,0.3588,0.3687,0.3843,0.3858,0.3651,0.3649,0.3648,0,0.3851,0.3857,0.3888,0.3883,0.3848,0.3864,0.385,0.383,0.3832,0.3828,0.3829,0.3828,0.3828,0.3828,0.3788,0.3749,0.3828,0.3766,0.3815,0.3816,0.3836,0.3835,0.3997,0.3835,0.3835,0.3835,0.3834,0,0.397,0.4005,0.3942,0.3962,0.3999,0.3947,0.3985,0.3965,0.3948,0.3964,0.3908,0.3925,0.3869,0.388,0.3849,0.3883,0.3883,0.387,0.3861,0.3876,0.3878,0.3879,0.3872,0.3839,0.3838,0.3837,0.3836,0,0.411,0.4069,0.41,0.4063,0.4054,0.4084,0.4053,0.4071,0.4043,0.4064,0.4066,0.4023,0.4033,0.3992,0.3996,0.3974,0.4026,0.4005,0.4032,0.4026,0.4077,0.4074,0.4247,0.4267,0.4091,0.4093,0.4094,0,0.4189,0.4214,0.418,0.4186,0.4175,0.4186,0.4187,0.4137,0.4141,0.4124,0.4144,0.4149,0.4151,0.417,0.414,0.4143,0.4123,0.4183,0.4123,0.4138,0.4127,0.4126,0.413,0.4197,0.4199,0.4201,0.4202,0,0.4336,0.4314,0.4317,0.4315,0.4318,0.4313,0.4305,0.4313,0.4259,0.4267,0.4276,0.4277,0.428,0.4287,0.4283,0.427,0.4229,0.4221,0.4233,0.4249,0.4264,0.4258,0.4068,0.4218,0.4216,0.4215,0.4214,0.4214,0.4449,0.4469,0.4448,0.4454,0.4442,0.4436,0.4451,0.4425,0.4431,0.4429,0.4399,0.4415,0.4398,0.4389,0.438,0.4392,0.4364,0.4381,0.4385,0.4391,0.4401,0.426,0.4391,0.4391,0.439,0.439,0.4389,0,0.4594,0.4577,0.4583,0.4573,0.4579,0.4536,0.4525,0.4533,0.4547,0.4534,0.4537,0.4548,0.4555,0.4525,0.4527,0.4543,0.4524,0.4546,0.4545,0.4543,0.4424,0.4415,0.4561,0.4561,0.4561,0.4561,0.4561,0.4561,0.467,0.4702,0.4678,0.4704,0.4687,0.4701,0.4698,0.4693,0.4683,0.4698,0.4702,0.4682,0.4663,0.4664,0.4668,0.4659,0.4664,0.4693,0.4678,0.4568,0.4551,0.4536,0.4527,0.4694,0.4694,0.4796,0.4797,0.4798]},{"header":{"parameterUnit":"m.s-1","parameterCategory":1,"la1":30.2991,"la2":30.254,"lo1":-89.0895,"lo2":-89.0444,"dy":0.0017,"dx":0.0017,"nx":28,"ny":28,"refTime":"2023-08-02T09:00:00:Z","depth":0,"parameterNumber":3,"parameterNumberName":"V-component_of_WINDS"},"data":[0,0,0,0,0,0,0,0,0,0,0,0,0,0,0,0,0,0,0,0,0,0,0,0,0,0,0,0,0,0,0,0,0,0,0,0,0,0,0,0,0,0,0,0,0,0,0,0,0,0,0,0,0,0,0,0,0,0,-0.3981,-0.3983,0,-0.4171,-0.4173,-0.4176,-0.4308,-0.4309,-0.431,-0.4311,-0.4505,-0.4509,-0.4514,0,0,0,0,0,0,0,0,0,0,0,0,0,-0.3733,-0.3737,-0.3981,-0.3983,-0.3986,-0.4171,-0.4174,-0.4176,-0.4308,-0.4309,-0.4311,-0.4312,-0.4504,-0.4509,-0.4514,0,0,0,0,0,0,0,0,0,0,0,0,0,-0.3873,-0.3738,-0.3981,-0.4074,-0.4084,-0.417,-0.4174,-0.4177,-0.4308,-0.4309,-0.4311,-0.4312,-0.4502,-0.4508,-0.4515,-0.4523,0,0,-0.4534,-0.4537,0,0,0,0,0,0,0,0,-0.3865,-0.3882,-0.4058,-0.4068,-0.4079,-0.4218,-0.4157,-0.4293,-0.4307,-0.4223,-0.4311,-0.4313,-0.4408,-0.4422,-0.4455,-0.4532,-0.454,-0.4535,-0.4538,-0.4541,-0.4543,0,0,0,0,0,0,0,-0.3855,-0.3875,-0.4056,-0.406,-0.4073,-0.4106,-0.4128,-0.4184,-0.4305,-0.423,-0.424,-0.4261,-0.4415,-0.4448,-0.446,-0.4543,-0.4534,-0.454,-0.4544,-0.4546,-0.4637,-0.4636,0,0,0,0,0,0,-0.3831,-0.3866,-0.405,-0.4062,-0.3974,-0.411,-0.4134,-0.4172,-0.4304,-0.4326,-0.426,-0.4267,-0.4437,-0.4453,-0.4468,-0.4486,-0.4541,-0.4547,-0.4551,-0.4639,-0.4637,-0.4636,0,0,0,0,0,0,-0.3825,-0.3846,-0.4043,-0.3967,-0.3994,-0.4112,-0.4154,-0.4175,-0.4209,-0.4327,-0.4349,-0.4272,-0.4439,-0.4459,-0.4508,-0.4494,-0.455,-0.4556,-0.464,-0.4638,-0.4636,-0.4522,0,0,0,0,0,0,-0.3817,-0.3843,-0.3847,-0.3966,-0.3998,-0.408,-0.4153,-0.4177,-0.4219,-0.423,-0.4344,-0.4364,-0.4441,-0.4498,-0.4515,-0.4504,-0.4561,-0.4642,-0.4639,-0.4637,-0.4527,-0.4516,-0.4507,0,0,0,0,0,-0.3808,-0.3807,-0.3847,-0.3868,-0.4006,-0.4079,-0.4097,-0.4186,-0.4217,-0.4223,-0.4299,-0.4361,-0.4494,-0.4502,-0.4522,-0.4513,-0.4643,-0.464,-0.4637,-0.4532,-0.4518,-0.4507,0,0,0,0,0,0,-0.3684,-0.3825,-0.387,-0.3908,-0.398,-0.4101,-0.411,-0.4168,-0.4233,-0.4241,-0.4348,-0.4373,-0.4411,-0.4468,-0.4475,-0.4528,-0.4576,-0.4577,-0.4489,-0.4477,-0.4467,-0.4452,-0.4566,0,0,0,0,0,-0.3661,-0.3708,-0.3829,-0.3851,-0.3885,-0.3991,-0.4026,-0.4088,-0.4168,-0.4199,-0.4279,-0.4353,-0.4412,-0.4448,-0.4509,-0.4537,-0.4563,-0.4541,-0.453,-0.4521,-0.452,-0.4539,-0.453,-0.4625,-0.4626,-0.4626,0,0,-0.3614,-0.3697,-0.372,-0.3828,-0.3892,-0.3938,-0.4016,-0.4062,-0.4098,-0.4206,-0.4257,-0.4318,-0.4409,-0.4447,-0.4469,-0.4496,-0.45,-0.4517,-0.4509,-0.4513,-0.4535,-0.4525,-0.4517,-0.4623,-0.4624,-0.4624,0,0,-0.3552,-0.3619,-0.3645,-0.3707,-0.3802,-0.3873,-0.3879,-0.3991,-0.4036,-0.4089,-0.4172,-0.4216,-0.4315,-0.4376,-0.442,-0.4381,-0.4441,-0.4398,-0.4343,-0.436,-0.4353,-0.4346,-0.4332,-0.4325,-0.4397,-0.4397,-0.4397,0,-0.3481,-0.3555,-0.365,-0.3692,-0.3737,-0.3838,-0.3864,-0.392,-0.4029,-0.4058,-0.4087,-0.4214,-0.4282,-0.4336,-0.4327,-0.4359,-0.4369,-0.4385,-0.4346,-0.4341,-0.4336,-0.4324,-0.4318,-0.4391,-0.4392,-0.4392,-0.4393,0,-0.3463,-0.3512,-0.3522,-0.3625,-0.3672,-0.3705,-0.3806,-0.3841,-0.39,-0.3967,-0.402,-0.4106,-0.4185,-0.4203,-0.4261,-0.4266,-0.4279,-0.4326,-0.4376,-0.432,-0.431,-0.4306,-0.4383,-0.4385,-0.4386,-0.4388,0,0,-0.3326,-0.3483,-0.3484,-0.3533,-0.3646,-0.3686,-0.3724,-0.3802,-0.383,-0.3903,-0.3937,-0.4019,-0.4063,-0.4113,-0.4179,-0.4194,-0.4157,-0.4239,-0.4242,-0.4219,-0.4167,-0.413,-0.4122,-0.4198,-0.4197,-0.4197,-0.4159,0,-0.328,-0.3354,-0.3442,-0.3485,-0.3532,-0.3629,-0.3663,-0.3736,-0.38,-0.385,-0.3921,-0.3977,-0.4031,-0.4062,-0.4081,-0.4157,-0.4147,-0.4161,-0.423,-0.4231,-0.4202,-0.4118,-0.4079,-0.4038,-0.4155,-0.4155,-0.4154,0,-0.3236,-0.3304,-0.3352,-0.3461,-0.3484,-0.3512,-0.3591,-0.3637,-0.3722,-0.3768,-0.3823,-0.3894,-0.3939,-0.3985,-0.4048,-0.4056,-0.409,-0.4131,-0.4132,-0.414,-0.4188,-0.4122,-0.4028,-0.4021,-0.4149,-0.415,-0.415,0,-0.313,-0.3234,-0.3276,-0.3314,-0.3443,-0.346,-0.3514,-0.3601,-0.3642,-0.3711,-0.3739,-0.3812,-0.3852,-0.3907,-0.3995,-0.4021,-0.4049,-0.4102,-0.4088,-0.4086,-0.4088,-0.4087,-0.3996,-0.4112,-0.4112,-0.4113,-0.4113,0,-0.3069,-0.3094,-0.323,-0.3255,-0.3287,-0.3388,-0.3416,-0.3479,-0.3555,-0.3595,-0.3684,-0.3719,-0.3835,-0.3884,-0.3954,-0.3996,-0.4013,-0.4051,-0.4069,-0.4042,-0.4037,-0.4065,-0.4069,-0.4111,-0.4111,-0.4112,-0.4112,0,-0.2955,-0.3047,-0.3099,-0.3217,-0.3247,-0.3264,-0.3365,-0.3394,-0.3464,-0.3513,-0.353,-0.364,-0.3702,-0.3797,-0.3887,-0.3934,-0.3964,-0.3995,-0.3935,-0.3946,-0.3926,-0.3925,-0.3849,-0.3843,-0.3963,-0.3961,-0.396,0,-0.2909,-0.2931,-0.3051,-0.3083,-0.3135,-0.3187,-0.3229,-0.333,-0.3371,-0.3469,-0.3486,-0.3555,-0.3616,-0.3711,-0.3799,-0.3869,-0.39,-0.3869,-0.3911,-0.3884,-0.3898,-0.3895,-0.3898,-0.3858,-0.3856,-0.3855,-0.3853,0,-0.2817,-0.2862,-0.292,-0.2993,-0.3042,-0.3105,-0.3172,-0.3194,-0.331,-0.3351,-0.3416,-0.3463,-0.3555,-0.3623,-0.3705,-0.3762,-0.3826,-0.384,-0.384,-0.3812,-0.3776,-0.3794,-0.3906,-0.384,-0.3842,-0.3843,-0.3843,-0.3844,-0.2735,-0.2759,-0.2847,-0.2908,-0.297,-0.3031,-0.3063,-0.3137,-0.3193,-0.3276,-0.3333,-0.3394,-0.3479,-0.3596,-0.3649,-0.3698,-0.3726,-0.3727,-0.3727,-0.3725,-0.3714,-0.3769,-0.3714,-0.3715,-0.3715,-0.3715,-0.3716,0,-0.2647,-0.2708,-0.2764,-0.2855,-0.2904,-0.2961,-0.3039,-0.3075,-0.3128,-0.3202,-0.326,-0.3334,-0.34,-0.3494,-0.3567,-0.3588,-0.362,-0.3604,-0.3603,-0.3614,-0.3686,-0.3678,-0.3577,-0.3577,-0.3577,-0.3577,-0.3577,-0.3577,-0.2606,-0.2649,-0.2704,-0.2778,-0.284,-0.29,-0.294,-0.2996,-0.3056,-0.3134,-0.319,-0.325,-0.3332,-0.3412,-0.3475,-0.3501,-0.3523,-0.3498,-0.3532,-0.3597,-0.3609,-0.3621,-0.3614,-0.3502,-0.3502,-0.3457,-0.3456,-0.3456]}]]